Regional Weather Roundup
Issued by NWS

Home | Current Version | Previous Version | Text Only | Print | Product List | Glossary Off
Versions: 1 2 3 4 5 6 7 8 9 10 11 12 13 14 15 16 17 18 19 20 21 22 23 24 25 26 27

000
ASUS45 KBOU 060807
RWRCO

WEATHER ROUNDUP FOR COLORADO
NATIONAL WEATHER SERVICE DENVER/BOULDER CO
100 AM MST TUE DEC 06 2016

NOTE: "FAIR" INDICATES FEW OR NO CLOUDS BELOW 12000 FEET WITH NO
SIGNIFICANT WEATHER AND/OR OBSTRUCTIONS TO VISIBILITY.

COZ001>005-013-030-031-060900-
...NORTHWEST COLORADO...

CITY           SKY/WX    TMP DP  RH WIND       PRES   REMARKS
CRAIG          FAIR      -2  -9  72 CALM      29.98F
HAYDEN         FAIR       3  -9  55 E6        29.95F WCI  -8
MEEKER         FAIR       3  -4  72 E8        29.96F WCI -10
MOUNT WERNER   NOT AVBL
STEAMBOAT SPGS FAIR      -1  -9  71 CALM      29.94F
WALDEN           N/A     -4 -15  59 S7        29.87S WCI -18
$$

COZ006>008-011-060900-
...WEST CENTRAL VALLEYS...

CITY           SKY/WX    TMP DP  RH WIND       PRES   REMARKS
GRAND JUNCTION FAIR      18   7  62 CALM      29.96F
MONTROSE       FAIR      19  10  68 SE9       29.98F WCI   8
EAGLE          CLOUDY    21   1  41 W13       29.94F WCI   9
RIFLE          CLOUDY    23   2  40 W5        29.96F WCI  17
DELTA          NOT AVBL
NUCLA          FAIR      21  14  73 E9        29.95F WCI  11
$$

COZ017>023-064>068-060900-
...SOUTHWEST COLORADO...

CITY           SKY/WX    TMP DP  RH WIND       PRES   REMARKS
DURANGO        FAIR      22  15  75 CALM      29.89S
CORTEZ         FAIR      24  20  84 E5        29.90S WCI  18
PAGOSA SPRINGS FAIR      20  13  72 CALM      29.89S
TELLURIDE      FAIR      19   9  65 SE9       29.89F WCI   8
WOLF CREEK PAS FAIR      10   9  92 SW16G25   29.88S WCI  -7
$$

COZ009-010-012-014-032>034-037-058>063-060900-
...CENTRAL COLORADO...

CITY           SKY/WX    TMP DP  RH WIND       PRES   REMARKS
ASPEN          CLOUDY    17   4  56 SE6       29.89F WCI   9
BUENA VISTA    MOCLDY    26   6  44 W20G26    29.80S WCI  12
COPPER MTN     FAIR       5  -4  66 MISG      29.71F
BERTHOUD PASS  SNOW      -6 -17  59 MISG      29.60F VSB 1/2
COTTONWOOD PAS CLOUDY    21   9  58 NW9       29.76F WCI  11
GUNNISON       FAIR      17   5  59 S3        29.89S
KREMMLING      FAIR       9  -2  61 CALM      29.92F
LEADVILLE      CLOUDY     6  -2  69 N13G26    29.78S HAZE    WCI -10
MONARCH PASS   CLOUDY     9   3  78 SW31G38   29.85S WCI -14
SALIDA         FAIR      30  11  45 W13G22    29.90S WCI  20
SUNLIGHT       CLOUDY     3   0  85 SW8G17    29.84S WCI -10
WILKERSON PASS FAIR      10   1  67 SW15G26   29.75R WCI  -6
$$

COZ069>075-060900-
...SAN LUIS VALLEY/SANGRE DE CRISTO MOUNTAINS...

CITY           SKY/WX    TMP DP  RH WIND       PRES   REMARKS
ALAMOSA        FAIR      14   5  67 SW12      29.82F WCI   0
LA VETA PASS   FAIR      21   9  58 NE9G22    29.82S WCI  11
SAGUACHE       FAIR      21  10  63 NW14      29.86R WCI   8
$$

COZ035-036-038>040-060900-
...NORTHERN COLORADO FRONT RANGE...

CITY           SKY/WX    TMP DP  RH WIND       PRES   REMARKS
DENVER INTL AP FAIR      13  -7  40 NE7       29.93R WCI   3
DMNS CITY PARK   N/A     19  -1  40 SE6G12    29.93R WCI  11
AURORA         PTCLDY    12  -5  46 SE8       29.92R WCI   1
FRONT RANGE AP FAIR      16  -6  38 E8        29.94R WCI   5
ERIE MUNI ARPT FAIR      23  -5  30 W12       29.93S WCI  11
BOULDER MUN AP FAIR      25  -4  28 CALM      29.92S
CENTENNIAL     FAIR      16  -4  41 SE12      29.91R WCI   3
BROOMFIELD     FAIR      21   0  39 SE7       29.91S WCI  13
FORT COLLINS   FAIR      21 -11  23 NW23G30   29.93R WCI   5
LONGMONT       FAIR      23 -12  21 NW8       29.95R WCI  14
$$

COZ041-046-047-076>085-087-088-060900-
...PIKES PEAK/PALMER DIVIDE AND SOUTHERN FOOTHILLS...

CITY           SKY/WX    TMP DP  RH WIND       PRES   REMARKS
COLO. SPRINGS  FAIR      12  -6  44 NE5       29.92S WCI   4
A. F. ACADEMY  FAIR      11  -5  49 NW5       29.89S WCI   3
SCHRIEVER AFB  NOT AVBL
ELLICOTT       MIX PCPN N/A N/A N/A NW3         N/A
FALCON         FAIR       9  -5  51 NW6       29.90S WCI   0
FORT CARSON    FAIR      15  -5  40 SE7       29.92R WCI   5
LIMON          FAIR       2   0  91 N8        29.94R WCI -12
MONUMENT HILL  FAIR       9  -4  56 SE6       29.88S WCI  -1
TRINIDAD       FAIR      17   2  51 SE3       29.95S
$$

COZ042>045-048>051-090-091-060900-
...NORTHEAST COLORADO...

CITY           SKY/WX    TMP DP  RH WIND       PRES   REMARKS
GREELEY ARPT   FAIR      18  -6  34 NW10      29.96S WCI   6
AKRON          FAIR      12   6  77 NW10      29.96S WCI  -1
BURLINGTON     FAIR      17   6  62 N10       29.96S WCI   5
WRAY           NOT AVBL
STERLING       FAIR      10   5  79 NW6       30.00R WCI   1
HOLYOKE        FAIR      21  10  63 NW10      30.00S WCI  10
FORT MORGAN    FAIR      11   6  79 N9        29.99R WCI  -2
$$

COZ086-089-092>099-060900-
...SOUTHEAST COLORADO...

CITY           SKY/WX    TMP DP  RH WIND       PRES   REMARKS
PUEBLO         FAIR      17   0  47 CALM      29.99R
LA JUNTA       FAIR      21   6  52 CALM      30.01R
LAMAR          FAIR      19   8  62 NW5       30.00R WCI  12
SPRINGFIELD      N/A     17   7  64 NW9       29.97R WCI   6
$$




USA.gov is the U.S. government's official web portal to all federal, state and local government web resources and services.